Tracking 19563 objects as of 20-Mar-2019
HD Live streaming from Space Station
objects crossing your sky now

WESTFORD NEEDLES

Track WESTFORD NEEDLES now!
10-day predictions
WESTFORD NEEDLES is classified as:


NORAD ID: 5702
Int'l Code: 1963-014CU
Perigee: 2,262.7 km
Apogee: 4,964.9 km
Inclination: 86.9 °
Period: 165.5 minutes
Semi major axis: 9984 km
RCS: 0.1919 m2 (medium)
Launch date: May 9, 1963
Source: United States (US)
Launch site: AIR FORCE WESTERN TEST RANGE (AFWTR)
aabbcc
Your satellite tracking list
Your tracking list is empty




NASA's NSSDC Master Catalog

Two Line Element Set (TLE):
1  5702U 63014CU  19078.35562321 +.00000141 +00000-0 +24647-1 0  9990
2  5702 086.9073 071.5802 1353143 201.9550 151.7583 08.70151433591450
Source of the keplerian elements: AFSPC